START_TIME,STEP,MOV.,M34,t_acc.,L5,t_acc.,L18,t_acc.,L14,t_acc.
1979-07-19 15:00:24.540 ,1,0,0.,12.0,0.,12.0,0.,12.0,0.,12.0
1979-07-19 15:00:36.540 ,1,0,0.,12.0,0.,12.0,0.,12.0,0.,12.0
1979-07-19 15:00:48.540 ,2,1,0.,12.0,0.,12.0,0.,12.0,0.,12.0
1979-07-19 15:01:00.540 ,2,1,0.,12.0,0.,12.0,0.,12.0,0.,12.0
1979-07-19 15:01:12.540 ,2,0,0.,12.0,0.,12.0,0.,12.0,0.,12.0
1979-07-19 15:01:24.540 ,2,0,0.,12.0,0.,12.0,0.,12.0,0.,12.0
1979-07-19 15:01:36.540 ,3,1,0.,12.0,0.,12.0,0.,12.0,0.,12.0
1979-07-19 15:01:48.540 ,3,1,0.,12.0,0.,12.0,0.,12.0,0.,12.0
1979-07-19 15:02:00.540 ,3,0,0.,12.0,0.,12.0,0.,12.0,0.,12.0
1979-07-19 15:02:12.540 ,3,0,0.,12.0,0.,12.0,0.,12.0,0.,12.0
1979-07-19 15:02:24.540 ,4,1,0.,12.0,0.,12.0,0.,12.0,0.,12.0
1979-07-19 15:02:36.540 ,4,1,0.,12.0,0.,12.0,0.,12.0,0.,12.0
1979-07-19 15:02:48.540 ,4,0,0.,12.0,0.,12.0,0.,12.0,0.,12.0
1979-07-19 15:03:00.540 ,4,0,0.,12.0,0.,12.0,0.,12.0,0.,12.0
1979-07-19 15:03:12.540 ,5,1,0.,12.0,0.,12.0,0.,12.0,0.,12.0
1979-07-19 15:03:24.540 ,5,1,0.,12.0,0.,12.0,0.,12.0,0.,12.0
1979-07-19 15:03:36.540 ,5,0,0.,12.0,0.,12.0,0.,12.0,0.,12.0
1979-07-19 15:03:48.540 ,5,0,0.,12.0,0.,12.0,0.,12.0,0.,12.0
1979-07-19 15:04:00.540 ,6,1,0.,12.0,0.,12.0,0.,12.0,0.,12.0
1979-07-19 15:04:12.540 ,6,1,0.,12.0,0.,12.0,0.,12.0,0.,12.0
1979-07-19 15:04:24.540 ,6,0,0.,12.0,0.,12.0,0.,12.0,0.,12.0
1979-07-19 15:04:36.540 ,6,0,0.,12.0,0.,12.0,0.,12.0,0.,12.0
1979-07-19 15:04:48.540 ,7,1,0.,12.0,0.,12.0,0.,12.0,0.,12.0
1979-07-19 15:05:00.540 ,7,1,0.,12.0,0.,12.0,0.,12.0,0.,12.0
1979-07-19 15:05:12.540 ,7,0,0.,12.0,0.,12.0,0.,12.0,0.,12.0
1979-07-19 15:05:24.540 ,7,0,0.,12.0,0.,12.0,0.,12.0,0.,12.0
1979-07-19 15:05:36.540 ,7,1,0.,12.0,0.,12.0,0.,12.0,0.,12.0
1979-07-19 15:05:48.540 ,7,1,0.,12.0,0.,12.0,0.,12.0,0.,12.0
1979-07-19 15:06:00.540 ,7,0,0.,12.0,0.,12.0,0.,12.0,0.,12.0
1979-07-19 15:06:12.540 ,7,0,0.,12.0,0.,12.0,0.,12.0,0.,12.0
1979-07-19 15:06:24.540 ,6,1,0.,12.0,0.,12.0,0.,12.0,0.,12.0
1979-07-19 15:06:36.540 ,6,1,0.,12.0,0.,12.0,0.,12.0,0.,12.0
1979-07-19 15:06:48.540 ,6,0,0.,12.0,0.,12.0,0.,12.0,0.,12.0
1979-07-19 15:07:00.540 ,6,0,0.,12.0,0.,12.0,0.,12.0,0.,12.0
1979-07-19 15:07:12.540 ,5,1,0.,12.0,0.,12.0,0.,12.0,0.,12.0
1979-07-19 15:07:24.540 ,5,1,0.,12.0,0.,12.0,0.,12.0,0.,12.0
1979-07-19 15:07:36.540 ,5,0,0.,12.0,0.,12.0,0.,12.0,0.,12.0
1979-07-19 15:07:48.540 ,5,0,0.,12.0,0.,12.0,0.,12.0,0.,12.0
1979-07-19 15:08:00.540 ,4,1,0.,12.0,0.,12.0,0.,12.0,0.,12.0
1979-07-19 15:08:12.540 ,4,1,0.,12.0,0.,12.0,0.,12.0,0.,12.0
1979-07-19 15:08:24.540 ,4,0,0.,12.0,0.,12.0,0.,12.0,0.,12.0
1979-07-19 15:08:36.540 ,4,0,0.,12.0,0.,12.0,0.,12.0,0.,12.0
1979-07-19 15:08:48.540 ,3,1,0.,12.0,0.,12.0,0.,12.0,0.,12.0
1979-07-19 15:09:00.540 ,3,1,0.,12.0,0.,12.0,0.,12.0,0.,12.0
1979-07-19 15:09:12.540 ,3,0,0.,12.0,0.,12.0,0.,12.0,0.,12.0
1979-07-19 15:09:24.540 ,3,0,0.,12.0,0.,12.0,0.,12.0,0.,12.0
1979-07-19 15:09:36.540 ,2,1,0.,12.0,0.,12.0,0.,12.0,0.,12.0
1979-07-19 15:09:48.540 ,2,1,0.,12.0,0.,12.0,0.,12.0,0.,12.0
1979-07-19 15:10:00.540 ,2,0,0.,12.0,0.,12.0,0.,12.0,0.,12.0
1979-07-19 15:10:12.540 ,2,0,0.,12.0,0.,12.0,0.,12.0,0.,12.0
1979-07-19 15:10:24.540 ,1,1,0.,12.0,0.,12.0,0.,12.0,0.,12.0
1979-07-19 15:10:36.540 ,1,1,0.,12.0,0.,12.0,0.,12.0,0.,12.0
1979-07-19 15:10:48.540 ,1,0,0.,12.0,0.,12.0,0.,12.0,0.,12.0
1979-07-19 15:11:00.540 ,1,0,0.,12.0,0.,12.0,0.,12.0,0.,12.0
1979-07-19 15:11:12.540 ,0,1,0.,12.0,0.,12.0,0.,12.0,0.,12.0
1979-07-19 15:11:24.540 ,0,1,0.,12.0,0.,12.0,0.,12.0,0.,12.0
1979-07-19 15:11:36.540 ,0,0,0.,12.0,0.,12.0,0.,12.0,0.,12.0
1979-07-19 15:11:48.540 ,0,0,0.,12.0,0.,12.0,0.,12.0,0.,12.0
1979-07-19 15:12:00.540 ,0,1,0.,12.0,0.,12.0,0.,12.0,0.,12.0
1979-07-19 15:12:12.540 ,0,1,0.,12.0,0.,12.0,0.,12.0,0.,12.0
1979-07-19 15:12:24.540 ,0,0,0.,12.0,0.,12.0,0.,12.0,0.,12.0
1979-07-19 15:12:36.540 ,0,0,0.,12.0,0.,12.0,0.,12.0,0.,12.0
1979-07-19 15:12:48.540 ,1,1,0.,12.0,0.,12.0,0.,12.0,0.,12.0
1979-07-19 15:13:00.540 ,1,1,0.,12.0,0.,12.0,0.,12.0,0.,12.0
1979-07-19 15:13:12.540 ,1,0,0.,12.0,0.,12.0,0.,12.0,0.,12.0
1979-07-19 15:13:24.540 ,1,0,0.,12.0,0.,12.0,0.,12.0,0.,12.0
1979-07-19 15:13:36.540 ,2,1,0.,12.0,0.,12.0,0.,12.0,0.,12.0
1979-07-19 15:13:48.540 ,2,1,0.,12.0,0.,12.0,0.,12.0,0.,12.0
1979-07-19 15:14:00.540 ,2,0,0.,12.0,0.,12.0,0.,12.0,0.,12.0
1979-07-19 15:14:12.540 ,2,0,0.,12.0,0.,12.0,0.,12.0,0.,12.0
1979-07-19 15:14:24.540 ,3,1,0.,12.0,0.,12.0,0.,12.0,0.,12.0
1979-07-19 15:14:36.540 ,3,1,0.,12.0,0.,12.0,0.,12.0,0.,12.0
1979-07-19 15:14:48.540 ,3,0,0.,12.0,0.,12.0,0.,12.0,0.,12.0
1979-07-19 15:15:00.540 ,3,0,0.,12.0,0.,12.0,0.,12.0,0.,12.0
1979-07-19 15:15:12.540 ,4,1,0.,12.0,0.,12.0,0.,12.0,0.,12.0
1979-07-19 15:15:24.540 ,4,1,0.,12.0,0.,12.0,0.,12.0,0.,12.0
1979-07-19 15:15:36.540 ,4,0,0.,12.0,0.,12.0,0.,12.0,0.,12.0
1979-07-19 15:15:48.540 ,4,0,0.,12.0,0.,12.0,0.,12.0,0.,12.0
1979-07-19 15:16:00.540 ,5,1,0.,12.0,0.,12.0,0.,12.0,0.,12.0
1979-07-19 15:16:12.540 ,5,1,0.,12.0,0.,12.0,0.,12.0,0.,12.0
1979-07-19 15:16:24.540 ,5,0,0.,12.0,0.,12.0,0.,12.0,0.,12.0
1979-07-19 15:16:36.540 ,5,0,0.,12.0,0.,12.0,0.,12.0,0.,12.0
1979-07-19 15:16:48.540 ,6,1,0.,12.0,0.,12.0,0.,12.0,0.,12.0
1979-07-19 15:17:00.540 ,6,1,0.,12.0,0.,12.0,0.,12.0,0.,12.0
1979-07-19 15:17:12.540 ,6,0,0.,12.0,0.,12.0,0.,12.0,0.,12.0
1979-07-19 15:17:24.540 ,6,0,0.,12.0,0.,12.0,0.,12.0,0.,12.0
1979-07-19 15:17:36.540 ,7,1,0.,12.0,0.,12.0,0.,12.0,0.,12.0
1979-07-19 15:17:48.540 ,7,1,0.,12.0,0.,12.0,0.,12.0,0.,12.0
1979-07-19 15:18:00.540 ,7,0,0.,12.0,0.,12.0,0.,12.0,0.,12.0
1979-07-19 15:18:12.540 ,7,0,0.,12.0,0.,12.0,0.,12.0,0.,12.0
1979-07-19 15:18:24.540 ,7,1,0.,12.0,0.,12.0,0.,12.0,0.,12.0
1979-07-19 15:18:36.540 ,7,1,0.,12.0,0.,12.0,0.,12.0,0.,12.0
1979-07-19 15:18:48.540 ,7,0,0.,12.0,0.,12.0,0.,12.0,0.,12.0
1979-07-19 15:19:00.540 ,7,0,0.,12.0,0.,12.0,0.,12.0,0.,12.0
1979-07-19 15:19:12.540 ,6,1,0.,12.0,0.,12.0,0.,12.0,0.,12.0
1979-07-19 15:19:24.540 ,6,1,0.,12.0,0.,12.0,0.,12.0,0.,12.0
1979-07-19 15:19:36.540 ,6,0,0.,12.0,0.,12.0,0.,12.0,0.,12.0
1979-07-19 15:19:48.540 ,6,0,0.,12.0,0.,12.0,0.,12.0,0.,12.0
1979-07-19 15:20:00.540 ,5,1,0.,12.0,0.,12.0,0.,12.0,0.,12.0
1979-07-19 15:20:12.540 ,5,1,0.,12.0,0.,12.0,0.,12.0,0.,12.0
1979-07-19 15:20:24.540 ,5,0,0.,12.0,0.,12.0,0.,12.0,0.,12.0
1979-07-19 15:20:36.540 ,5,0,0.,12.0,0.,12.0,0.,12.0,0.,12.0
1979-07-19 15:20:48.540 ,4,1,0.,12.0,0.,12.0,0.,12.0,0.,12.0
1979-07-19 15:21:00.540 ,4,1,0.,12.0,0.,12.0,0.,12.0,0.,12.0
1979-07-19 15:21:12.540 ,4,0,0.,12.0,0.,12.0,0.,12.0,0.,12.0
1979-07-19 15:21:24.540 ,4,0,0.,12.0,0.,12.0,0.,12.0,0.,12.0
1979-07-19 15:21:36.540 ,3,1,0.,12.0,0.,12.0,0.,12.0,0.,12.0
1979-07-19 15:21:48.540 ,3,1,0.,12.0,0.,12.0,0.,12.0,0.,12.0
1979-07-19 15:22:00.540 ,3,0,0.,12.0,0.,12.0,0.,12.0,0.,12.0
1979-07-19 15:22:12.540 ,3,0,0.,12.0,0.,12.0,0.,12.0,0.,12.0
1979-07-19 15:22:24.540 ,2,1,0.,12.0,0.,12.0,0.,12.0,0.,12.0
1979-07-19 15:22:36.540 ,2,1,0.,12.0,0.,12.0,0.,12.0,0.,12.0
1979-07-19 15:22:48.540 ,2,0,0.,12.0,0.,12.0,0.,12.0,0.,12.0
1979-07-19 15:23:00.540 ,2,0,0.,12.0,0.,12.0,0.,12.0,0.,12.0
1979-07-19 15:23:12.540 ,1,1,0.,12.0,0.,12.0,0.,12.0,0.,12.0
1979-07-19 15:23:24.540 ,1,1,0.,12.0,0.,12.0,0.,12.0,0.,12.0
1979-07-19 15:23:36.540 ,1,0,0.,12.0,0.,12.0,0.,12.0,0.,12.0
1979-07-19 15:23:48.540 ,1,0,0.,12.0,0.,12.0,0.,12.0,0.,12.0
1979-07-19 15:24:00.540 ,0,1,0.,12.0,0.,12.0,0.,12.0,0.,12.0
1979-07-19 15:24:12.540 ,0,1,0.,12.0,0.,12.0,0.,12.0,0.,12.0
1979-07-19 15:24:24.540 ,0,0,0.,12.0,0.,12.0,0.,12.0,0.,12.0
1979-07-19 15:24:36.540 ,0,0,0.,12.0,0.,12.0,0.,12.0,0.,12.0
1979-07-19 15:24:48.540 ,0,1,0.,12.0,0.,12.0,0.,12.0,0.,12.0
1979-07-19 15:25:00.540 ,0,1,0.,12.0,0.,12.0,0.,12.0,0.,12.0
1979-07-19 15:25:12.540 ,0,0,0.,12.0,0.,12.0,0.,12.0,0.,12.0
1979-07-19 15:25:24.540 ,0,0,0.,12.0,0.,12.0,0.,12.0,0.,12.0
1979-07-19 15:25:36.540 ,1,1,0.,12.0,0.,12.0,0.,12.0,0.,12.0
1979-07-19 15:25:48.540 ,1,1,0.,12.0,0.,12.0,0.,12.0,0.,12.0
1979-07-19 15:26:00.540 ,1,0,0.,12.0,0.,12.0,0.,12.0,0.,12.0
1979-07-19 15:26:12.540 ,1,0,0.,12.0,0.,12.0,0.,12.0,0.,12.0
1979-07-19 15:26:24.540 ,2,1,0.,12.0,0.,12.0,0.,12.0,0.,12.0
1979-07-19 15:26:36.540 ,2,1,0.,12.0,0.,12.0,0.,12.0,0.,12.0
1979-07-19 15:26:48.540 ,2,0,0.,12.0,0.,12.0,0.,12.0,0.,12.0
1979-07-19 15:27:00.540 ,2,0,0.,12.0,0.,12.0,0.,12.0,0.,12.0
1979-07-19 15:27:12.540 ,3,1,0.,12.0,0.,12.0,0.,12.0,0.,12.0
1979-07-19 15:27:24.540 ,3,1,0.,12.0,0.,12.0,0.,12.0,0.,12.0
1979-07-19 15:27:36.540 ,3,0,0.,12.0,0.,12.0,0.,12.0,0.,12.0
1979-07-19 15:27:48.540 ,3,0,0.,12.0,0.,12.0,0.,12.0,0.,12.0
1979-07-19 15:28:00.540 ,4,1,0.,12.0,0.,12.0,0.,12.0,0.,12.0
1979-07-19 15:28:12.540 ,4,1,0.,12.0,0.,12.0,0.,12.0,0.,12.0
1979-07-19 15:28:24.540 ,4,0,0.,12.0,0.,12.0,0.,12.0,0.,12.0
1979-07-19 15:28:36.540 ,4,0,0.,12.0,0.,12.0,0.,12.0,0.,12.0
1979-07-19 15:28:48.540 ,5,1,0.,12.0,0.,12.0,0.,12.0,0.,12.0
1979-07-19 15:29:00.540 ,5,1,0.,12.0,0.,12.0,0.,12.0,0.,12.0
1979-07-19 15:29:12.540 ,5,0,0.,12.0,0.,12.0,0.,12.0,0.,12.0
1979-07-19 15:29:24.540 ,5,0,0.,12.0,0.,12.0,0.,12.0,0.,12.0
1979-07-19 15:29:36.540 ,6,1,0.,12.0,0.,12.0,0.,12.0,0.,12.0
1979-07-19 15:29:48.540 ,6,1,0.,12.0,0.,12.0,0.,12.0,0.,12.0
1979-07-19 15:30:00.540 ,6,0,0.,12.0,0.,12.0,0.,12.0,0.,12.0
1979-07-19 15:30:12.540 ,6,0,0.,12.0,0.,12.0,0.,12.0,0.,12.0
1979-07-19 15:30:24.540 ,7,0,0.,12.0,0.,12.0,0.,12.0,0.,12.0
1979-07-19 15:30:36.540 ,7,0,0.,12.0,0.,12.0,0.,12.0,0.,12.0
1979-07-19 15:30:48.540 ,7,0,0.,12.0,0.,12.0,0.,12.0,0.,12.0
1979-07-19 15:31:00.540 ,7,0,0.,12.0,0.,12.0,0.,12.0,0.,12.0
1979-07-19 15:31:12.540 ,4,1,0.,12.0,0.,12.0,0.,12.0,0.,12.0
1979-07-19 15:31:24.540 ,4,1,0.,12.0,0.,12.0,0.,12.0,0.,12.0
1979-07-19 15:31:36.540 ,0,1,0.,12.0,0.,12.0,0.,12.0,0.,12.0
1979-07-19 15:31:48.540 ,0,1,0.,12.0,0.,12.0,0.,12.0,0.,12.0
1979-07-19 15:32:00.540 ,3,1,0.,12.0,0.,12.0,0.,12.0,0.,12.0
1979-07-19 15:32:12.540 ,3,1,0.,12.0,0.,12.0,0.,12.0,0.,12.0
1979-07-19 15:32:24.540 ,7,1,0.,12.0,0.,12.0,0.,12.0,0.,12.0
1979-07-19 15:32:36.540 ,7,1,0.,12.0,0.,12.0,0.,12.0,0.,12.0
1979-07-19 15:32:48.540 ,4,1,0.,12.0,0.,12.0,0.,12.0,0.,12.0
1979-07-19 15:33:00.540 ,4,1,0.,12.0,0.,12.0,0.,12.0,0.,12.0
1979-07-19 15:33:12.540 ,0,1,0.,12.0,0.,12.0,0.,12.0,0.,12.0
1979-07-19 15:33:24.540 ,0,1,0.,12.0,0.,12.0,0.,12.0,0.,12.0
1979-07-19 15:33:36.540 ,3,1,0.,12.0,0.,12.0,0.,12.0,0.,12.0
1979-07-19 15:33:48.540 ,3,1,0.,12.0,0.,12.0,0.,12.0,0.,12.0
1979-07-19 15:34:00.540 ,7,1,0.,12.0,0.,12.0,0.,12.0,0.,12.0
1979-07-19 15:34:12.540 ,7,1,0.,12.0,0.,12.0,0.,12.0,0.,12.0
1979-07-19 15:34:24.540 ,4,1,0.,12.0,0.,12.0,0.,12.0,0.,12.0
1979-07-19 15:34:36.540 ,4,1,0.,12.0,0.,12.0,0.,12.0,0.,12.0
1979-07-19 15:34:48.540 ,0,1,0.,12.0,0.,12.0,0.,12.0,0.,12.0
1979-07-19 15:35:00.540 ,0,1,0.,12.0,0.,12.0,0.,12.0,0.,12.0
1979-07-19 15:35:12.540 ,3,1,0.,12.0,0.,12.0,0.,12.0,0.,12.0
1979-07-19 15:35:24.540 ,3,1,0.,12.0,0.,12.0,0.,12.0,0.,12.0
1979-07-19 15:35:36.540 ,7,1,0.,12.0,0.,12.0,0.,12.0,0.,12.0
1979-07-19 15:35:48.540 ,7,1,0.,12.0,0.,12.0,0.,12.0,0.,12.0
1979-07-19 15:36:00.540 ,4,1,0.,12.0,0.,12.0,0.,12.0,0.,12.0
1979-07-19 15:36:12.540 ,4,1,0.,12.0,0.,12.0,0.,12.0,0.,12.0
1979-07-19 15:36:24.540 ,0,1,0.,12.0,0.,12.0,0.,12.0,0.,12.0
1979-07-19 15:36:36.540 ,0,1,0.,12.0,0.,12.0,0.,12.0,0.,12.0
1979-07-19 15:36:48.540 ,3,1,0.,12.0,0.,12.0,0.,12.0,0.,12.0
1979-07-19 15:37:00.540 ,3,1,0.,12.0,0.,12.0,0.,12.0,0.,12.0
1979-07-19 15:37:12.540 ,7,1,0.,12.0,0.,12.0,0.,12.0,0.,12.0
1979-07-19 15:37:24.540 ,7,1,0.,12.0,0.,12.0,0.,12.0,0.,12.0
1979-07-19 15:37:36.540 ,4,1,0.,12.0,0.,12.0,0.,12.0,0.,12.0
1979-07-19 15:37:48.540 ,4,1,0.,12.0,0.,12.0,0.,12.0,0.,12.0
1979-07-19 15:38:00.540 ,0,1,0.,12.0,0.,12.0,0.,12.0,0.,12.0
1979-07-19 15:38:12.540 ,0,1,0.,12.0,0.,12.0,0.,12.0,0.,12.0
1979-07-19 15:38:24.540 ,3,1,0.,12.0,0.,12.0,0.,12.0,0.,12.0
1979-07-19 15:38:36.540 ,3,1,0.,12.0,0.,12.0,0.,12.0,0.,12.0
1979-07-19 15:38:48.540 ,7,1,0.,12.0,0.,12.0,0.,12.0,0.,12.0
1979-07-19 15:39:00.540 ,7,1,0.,12.0,0.,12.0,0.,12.0,0.,12.0
1979-07-19 15:39:12.540 ,4,1,0.,12.0,0.,12.0,0.,12.0,0.,12.0
1979-07-19 15:39:24.540 ,4,1,0.,12.0,0.,12.0,0.,12.0,0.,12.0
1979-07-19 15:39:36.540 ,0,1,0.,12.0,0.,12.0,0.,12.0,0.,12.0
1979-07-19 15:39:48.540 ,0,1,0.,12.0,0.,12.0,0.,12.0,0.,12.0
1979-07-19 15:40:00.540 ,3,1,0.,12.0,0.,12.0,0.,12.0,0.,12.0
1979-07-19 15:40:12.540 ,3,1,0.,12.0,0.,12.0,0.,12.0,0.,12.0
1979-07-19 15:40:24.540 ,7,1,0.,12.0,0.,12.0,0.,12.0,0.,12.0
1979-07-19 15:40:36.540 ,7,1,0.,12.0,0.,12.0,0.,12.0,0.,12.0
1979-07-19 15:40:48.540 ,4,1,0.,12.0,0.,12.0,0.,12.0,0.,12.0
1979-07-19 15:41:00.540 ,4,1,0.,12.0,0.,12.0,0.,12.0,0.,12.0
1979-07-19 15:41:12.540 ,0,1,0.,12.0,0.,12.0,0.,12.0,0.,12.0
1979-07-19 15:41:24.540 ,0,1,0.,12.0,0.,12.0,0.,12.0,0.,12.0
1979-07-19 15:41:36.540 ,0,0,0.,12.0,0.,12.0,0.,12.0,0.,12.0
1979-07-19 15:41:48.540 ,0,0,0.,12.0,0.,12.0,0.,12.0,0.,12.0
1979-07-19 15:42:00.540 ,0,0,0.,12.0,0.,12.0,0.,12.0,0.,12.0
1979-07-19 15:42:12.540 ,0,0,0.,12.0,0.,12.0,0.,12.0,0.,12.0
1979-07-19 15:42:24.540 ,5,1,0.,12.0,0.,12.0,0.,12.0,0.,12.0
1979-07-19 15:42:36.540 ,5,1,0.,12.0,0.,12.0,0.,12.0,0.,12.0
1979-07-19 15:42:48.540 ,5,0,0.,12.0,0.,12.0,0.,12.0,0.,12.0
1979-07-19 15:43:00.540 ,5,0,0.,12.0,0.,12.0,0.,12.0,0.,12.0
1979-07-19 15:43:12.540 ,4,1,0.,12.0,0.,12.0,0.,12.0,0.,12.0
1979-07-19 15:43:24.540 ,4,1,0.,12.0,0.,12.0,0.,12.0,0.,12.0
1979-07-19 15:43:36.540 ,4,0,0.,12.0,0.,12.0,0.,12.0,0.,12.0
1979-07-19 15:43:48.540 ,4,0,0.,12.0,0.,12.0,0.,12.0,0.,12.0
1979-07-19 15:44:00.540 ,3,1,0.,12.0,0.,12.0,0.,12.0,0.,12.0
1979-07-19 15:44:12.540 ,3,1,0.,12.0,0.,12.0,0.,12.0,0.,12.0
1979-07-19 15:44:24.540 ,3,0,0.,12.0,0.,12.0,0.,12.0,0.,12.0
1979-07-19 15:44:36.540 ,3,0,0.,12.0,0.,12.0,0.,12.0,0.,12.0
1979-07-19 15:44:48.540 ,2,1,0.,12.0,0.,12.0,0.,12.0,0.,12.0
1979-07-19 15:45:00.540 ,2,1,0.,12.0,0.,12.0,0.,12.0,0.,12.0
1979-07-19 15:45:12.540 ,2,0,0.,12.0,0.,12.0,0.,12.0,0.,12.0
1979-07-19 15:45:24.540 ,2,0,0.,12.0,0.,12.0,0.,12.0,0.,12.0
1979-07-19 15:45:36.540 ,1,1,0.,12.0,0.,12.0,0.,12.0,0.,12.0
1979-07-19 15:45:48.540 ,1,1,0.,12.0,0.,12.0,0.,12.0,0.,12.0
1979-07-19 15:46:00.540 ,1,0,0.,12.0,0.,12.0,0.,12.0,0.,12.0
1979-07-19 15:46:12.540 ,1,0,0.,12.0,0.,12.0,0.,12.0,0.,12.0
1979-07-19 15:46:24.540 ,0,1,0.,12.0,0.,12.0,0.,12.0,0.,12.0
1979-07-19 15:46:36.540 ,0,1,0.,12.0,0.,12.0,0.,12.0,0.,12.0
1979-07-19 15:46:48.540 ,0,0,0.,12.0,0.,12.0,0.,12.0,0.,12.0
1979-07-19 15:47:00.540 ,0,0,0.,12.0,0.,12.0,0.,12.0,0.,12.0
1979-07-19 15:47:12.540 ,0,1,0.,12.0,0.,12.0,0.,12.0,0.,12.0
1979-07-19 15:47:24.540 ,0,1,0.,12.0,0.,12.0,0.,12.0,0.,12.0
1979-07-19 15:47:36.540 ,0,0,0.,12.0,0.,12.0,0.,12.0,0.,12.0
1979-07-19 15:47:48.540 ,0,0,0.,12.0,0.,12.0,0.,12.0,0.,12.0
1979-07-19 15:48:00.540 ,1,1,0.,12.0,0.,12.0,0.,12.0,0.,12.0
1979-07-19 15:48:12.540 ,1,1,0.,12.0,0.,12.0,0.,12.0,0.,12.0
1979-07-19 15:48:24.540 ,1,0,0.,12.0,0.,12.0,0.,12.0,0.,12.0
1979-07-19 15:48:36.540 ,1,0,0.,12.0,0.,12.0,0.,12.0,0.,12.0
1979-07-19 15:48:48.540 ,2,1,0.,12.0,0.,12.0,0.,12.0,0.,12.0
1979-07-19 15:49:00.540 ,2,1,0.,12.0,0.,12.0,0.,12.0,0.,12.0
1979-07-19 15:49:12.540 ,2,0,0.,12.0,0.,12.0,0.,12.0,0.,12.0
1979-07-19 15:49:24.540 ,2,0,0.,12.0,0.,12.0,0.,12.0,0.,12.0
1979-07-19 15:49:36.540 ,3,1,0.,12.0,0.,12.0,0.,12.0,0.,12.0
1979-07-19 15:49:48.540 ,3,1,0.,12.0,0.,12.0,0.,12.0,0.,12.0
1979-07-19 15:50:00.540 ,3,0,0.,12.0,0.,12.0,0.,12.0,0.,12.0
1979-07-19 15:50:12.540 ,3,0,0.,12.0,0.,12.0,0.,12.0,0.,12.0
1979-07-19 15:50:24.540 ,4,1,0.,12.0,0.,12.0,0.,12.0,0.,12.0
1979-07-19 15:50:36.540 ,4,1,0.,12.0,0.,12.0,0.,12.0,0.,12.0
1979-07-19 15:50:48.540 ,4,0,0.,12.0,0.,12.0,0.,12.0,0.,12.0
1979-07-19 15:51:00.540 ,4,0,0.,12.0,0.,12.0,0.,12.0,0.,12.0
1979-07-19 15:51:12.540 ,5,1,0.,12.0,0.,12.0,0.,12.0,0.,12.0
1979-07-19 15:51:24.540 ,5,1,0.,12.0,0.,12.0,0.,12.0,0.,12.0
1979-07-19 15:51:36.540 ,5,0,0.,12.0,0.,12.0,0.,12.0,0.,12.0
1979-07-19 15:51:48.540 ,5,0,0.,12.0,0.,12.0,0.,12.0,0.,12.0
1979-07-19 15:52:00.540 ,6,1,0.,12.0,0.,12.0,0.,12.0,0.,12.0
1979-07-19 15:52:12.540 ,6,1,0.,12.0,0.,12.0,0.,12.0,0.,12.0
1979-07-19 15:52:24.540 ,6,0,0.,12.0,0.,12.0,0.,12.0,0.,12.0
1979-07-19 15:52:36.540 ,6,0,0.,12.0,0.,12.0,0.,12.0,0.,12.0
1979-07-19 15:52:48.540 ,7,1,0.,12.0,0.,12.0,0.,12.0,0.,12.0
1979-07-19 15:53:00.540 ,7,1,0.,12.0,0.,12.0,0.,12.0,0.,12.0
1979-07-19 15:53:12.540 ,7,0,0.,12.0,0.,12.0,0.,12.0,0.,12.0
1979-07-19 15:53:24.540 ,7,0,0.,12.0,0.,12.0,0.,12.0,0.,12.0
1979-07-19 15:53:36.540 ,7,1,0.,12.0,0.,12.0,0.,12.0,0.,12.0
1979-07-19 15:53:48.540 ,7,1,0.,12.0,0.,12.0,0.,12.0,0.,12.0
1979-07-19 15:54:00.540 ,7,0,0.,12.0,0.,12.0,0.,12.0,0.,12.0
1979-07-19 15:54:12.540 ,7,0,0.,12.0,0.,12.0,0.,12.0,0.,12.0
1979-07-19 15:54:24.540 ,6,1,0.,12.0,0.,12.0,0.,12.0,0.,12.0
1979-07-19 15:54:36.540 ,6,1,0.,12.0,0.,12.0,0.,12.0,0.,12.0
1979-07-19 15:54:48.540 ,6,0,0.,12.0,0.,12.0,0.,12.0,0.,12.0
1979-07-19 15:55:00.540 ,6,0,0.,12.0,0.,12.0,0.,12.0,0.,12.0
1979-07-19 15:55:12.540 ,5,1,0.,12.0,0.,12.0,0.,12.0,0.,12.0
1979-07-19 15:55:24.540 ,5,1,0.,12.0,0.,12.0,0.,12.0,0.,12.0
1979-07-19 15:55:36.540 ,5,0,0.,12.0,0.,12.0,0.,12.0,0.,12.0
1979-07-19 15:55:48.540 ,5,0,0.,12.0,0.,12.0,0.,12.0,0.,12.0
1979-07-19 15:56:48.540 ,0,0,0.,12.0,0.,12.0,0.,12.0,0.,12.0
1979-07-19 15:57:00.540 ,0,0,0.,12.0,0.,12.0,0.,12.0,0.,12.0
1979-07-19 15:57:12.540 ,0,0,0.,12.0,0.,12.0,0.,12.0,0.,12.0
1979-07-19 15:57:24.540 ,0,0,0.,12.0,0.,12.0,0.,12.0,0.,12.0
1979-07-19 15:57:36.540 ,2,1,0.,12.0,0.,12.0,0.,12.0,0.,12.0
1979-07-19 15:57:48.540 ,2,1,0.,12.0,0.,12.0,0.,12.0,0.,12.0
1979-07-19 15:58:00.540 ,2,0,0.,12.0,0.,12.0,0.,12.0,0.,12.0
1979-07-19 15:58:12.540 ,2,0,0.,12.0,0.,12.0,0.,12.0,0.,12.0
1979-07-19 15:58:24.540 ,1,1,0.,12.0,0.,12.0,0.,12.0,0.,12.0
1979-07-19 15:58:36.540 ,1,1,0.,12.0,0.,12.0,0.,12.0,0.,12.0
1979-07-19 15:58:48.540 ,1,0,0.,12.0,0.,12.0,0.,12.0,0.,12.0
1979-07-19 15:59:00.540 ,1,0,0.,12.0,0.,12.0,0.,12.0,0.,12.0
1979-07-19 15:59:12.540 ,0,1,0.,12.0,0.,12.0,0.,12.0,0.,12.0
1979-07-19 15:59:24.540 ,0,1,0.,12.0,0.,12.0,0.,12.0,0.,12.0
1979-07-19 15:59:36.540 ,0,0,0.,12.0,0.,12.0,0.,12.0,0.,12.0
1979-07-19 15:59:48.540 ,0,0,0.,12.0,0.,12.0,0.,12.0,0.,12.0
1979-07-19 16:00:00.540 ,0,1,0.,12.0,0.,12.0,0.,12.0,0.,12.0
1979-07-19 16:00:12.540 ,0,1,0.,12.0,0.,12.0,0.,12.0,0.,12.0
1979-07-19 16:00:24.540 ,0,0,0.,12.0,0.,12.0,0.,12.0,0.,12.0
1979-07-19 16:00:36.540 ,0,0,1.,12.0,0.,12.0,0.,12.0,0.,12.0
1979-07-19 16:00:48.540 ,1,1,0.,12.0,0.,12.0,0.,12.0,0.,12.0
1979-07-19 16:01:00.540 ,1,1,0.,12.0,0.,12.0,0.,12.0,0.,12.0
1979-07-19 16:01:12.540 ,1,0,0.,12.0,0.,12.0,0.,12.0,0.,12.0
1979-07-19 16:01:24.540 ,1,0,0.,12.0,0.,12.0,0.,12.0,0.,12.0
1979-07-19 16:01:36.540 ,2,1,0.,12.0,0.,12.0,0.,12.0,0.,12.0
1979-07-19 16:01:48.540 ,2,1,0.,12.0,0.,12.0,0.,12.0,0.,12.0
1979-07-19 16:02:00.540 ,2,0,0.,12.0,0.,12.0,0.,12.0,0.,12.0
1979-07-19 16:02:12.540 ,2,0,0.,12.0,0.,12.0,0.,12.0,0.,12.0
1979-07-19 16:02:24.540 ,3,1,0.,12.0,0.,12.0,0.,12.0,0.,12.0
1979-07-19 16:02:36.540 ,3,1,0.,12.0,0.,12.0,0.,12.0,0.,12.0
1979-07-19 16:02:48.540 ,3,0,0.,12.0,0.,12.0,0.,12.0,0.,12.0
1979-07-19 16:03:00.540 ,3,0,0.,12.0,0.,12.0,0.,12.0,0.,12.0
1979-07-19 16:03:12.540 ,4,1,0.,12.0,0.,12.0,0.,12.0,0.,12.0
1979-07-19 16:03:24.540 ,4,1,0.,12.0,0.,12.0,0.,12.0,0.,12.0
1979-07-19 16:03:36.540 ,4,0,0.,12.0,0.,12.0,0.,12.0,0.,12.0
1979-07-19 16:03:48.540 ,4,0,0.,12.0,0.,12.0,0.,12.0,0.,12.0
1979-07-19 16:04:00.540 ,5,1,0.,12.0,0.,12.0,0.,12.0,0.,12.0
1979-07-19 16:04:12.540 ,5,1,0.,12.0,0.,12.0,0.,12.0,0.,12.0
1979-07-19 16:04:24.540 ,5,0,0.,12.0,0.,12.0,0.,12.0,0.,12.0
1979-07-19 16:04:36.540 ,5,0,0.,12.0,0.,12.0,0.,12.0,0.,12.0
1979-07-19 16:04:48.540 ,6,1,0.,12.0,0.,12.0,0.,12.0,0.,12.0
1979-07-19 16:05:00.540 ,6,1,0.,12.0,0.,12.0,0.,12.0,0.,12.0
1979-07-19 16:05:12.540 ,6,0,0.,12.0,0.,12.0,0.,12.0,0.,12.0
1979-07-19 16:05:24.540 ,6,0,0.,12.0,0.,12.0,0.,12.0,0.,12.0
1979-07-19 16:05:36.540 ,7,1,0.,12.0,0.,12.0,0.,12.0,0.,12.0
1979-07-19 16:05:48.540 ,7,1,0.,12.0,0.,12.0,0.,12.0,0.,12.0
1979-07-19 16:06:00.540 ,7,0,0.,12.0,0.,12.0,0.,12.0,0.,12.0
1979-07-19 16:06:12.540 ,7,0,0.,12.0,0.,12.0,0.,12.0,0.,12.0
1979-07-19 16:06:24.540 ,7,1,0.,12.0,0.,12.0,0.,12.0,0.,12.0
1979-07-19 16:06:36.540 ,7,1,0.,12.0,0.,12.0,0.,12.0,0.,12.0
1979-07-19 16:06:48.540 ,7,0,0.,12.0,0.,12.0,0.,12.0,0.,12.0
1979-07-19 16:07:00.540 ,7,0,0.,12.0,0.,12.0,0.,12.0,0.,12.0
1979-07-19 16:07:12.540 ,6,1,0.,12.0,0.,12.0,0.,12.0,0.,12.0
1979-07-19 16:07:24.540 ,6,1,0.,12.0,0.,12.0,0.,12.0,0.,12.0
1979-07-19 16:07:36.540 ,6,0,0.,12.0,0.,12.0,0.,12.0,0.,12.0
1979-07-19 16:07:48.540 ,6,0,0.,12.0,0.,12.0,0.,12.0,0.,12.0
1979-07-19 16:08:00.540 ,5,1,0.,12.0,0.,12.0,0.,12.0,0.,12.0
1979-07-19 16:08:12.540 ,5,1,0.,12.0,0.,12.0,0.,12.0,0.,12.0
1979-07-19 16:08:24.540 ,5,0,0.,12.0,0.,12.0,0.,12.0,0.,12.0
1979-07-19 16:08:36.540 ,5,0,0.,12.0,0.,12.0,0.,12.0,0.,12.0
1979-07-19 16:08:48.540 ,4,1,1.,12.0,0.,12.0,0.,12.0,0.,12.0
1979-07-19 16:09:00.540 ,4,1,0.,12.0,0.,12.0,0.,12.0,0.,12.0
1979-07-19 16:09:12.540 ,4,0,0.,12.0,0.,12.0,0.,12.0,0.,12.0
1979-07-19 16:09:24.540 ,4,0,0.,12.0,0.,12.0,0.,12.0,0.,12.0
1979-07-19 16:09:36.540 ,3,1,0.,12.0,0.,12.0,0.,12.0,0.,12.0
1979-07-19 16:09:48.540 ,3,1,0.,12.0,0.,12.0,0.,12.0,0.,12.0
1979-07-19 16:10:00.540 ,3,0,0.,12.0,0.,12.0,0.,12.0,0.,12.0
1979-07-19 16:10:12.540 ,3,0,0.,12.0,0.,12.0,0.,12.0,0.,12.0
1979-07-19 16:10:24.540 ,2,1,0.,12.0,0.,12.0,0.,12.0,0.,12.0
1979-07-19 16:10:36.540 ,2,1,0.,12.0,0.,12.0,0.,12.0,0.,12.0
1979-07-19 16:10:48.540 ,2,0,0.,12.0,0.,12.0,0.,12.0,0.,12.0
1979-07-19 16:11:00.540 ,2,0,0.,12.0,0.,12.0,0.,12.0,0.,12.0
1979-07-19 16:11:12.540 ,1,1,0.,12.0,0.,12.0,0.,12.0,0.,12.0
1979-07-19 16:11:24.540 ,1,1,0.,12.0,0.,12.0,0.,12.0,0.,12.0
1979-07-19 16:11:36.540 ,1,0,0.,12.0,0.,12.0,0.,12.0,0.,12.0
1979-07-19 16:11:48.540 ,1,0,0.,12.0,0.,12.0,0.,12.0,0.,12.0
1979-07-19 16:12:00.540 ,0,1,0.,12.0,0.,12.0,0.,12.0,0.,12.0
1979-07-19 16:12:12.540 ,0,1,0.,12.0,0.,12.0,0.,12.0,0.,12.0
1979-07-19 16:12:24.540 ,0,0,0.,12.0,0.,12.0,0.,12.0,0.,12.0
1979-07-19 16:12:36.540 ,0,0,0.,12.0,0.,12.0,0.,12.0,0.,12.0
1979-07-19 16:12:48.540 ,0,1,0.,12.0,0.,12.0,0.,12.0,0.,12.0
1979-07-19 16:13:00.540 ,0,1,0.,12.0,0.,12.0,0.,12.0,0.,12.0
1979-07-19 16:13:12.540 ,0,0,0.,12.0,0.,12.0,0.,12.0,0.,12.0
1979-07-19 16:13:24.540 ,0,0,0.,12.0,0.,12.0,0.,12.0,0.,12.0
1979-07-19 16:13:36.540 ,1,1,0.,12.0,0.,12.0,0.,12.0,0.,12.0
1979-07-19 16:13:48.540 ,1,1,0.,12.0,0.,12.0,0.,12.0,0.,12.0
1979-07-19 16:14:00.540 ,1,0,0.,12.0,0.,12.0,0.,12.0,0.,12.0
1979-07-19 16:14:12.540 ,1,0,0.,12.0,0.,12.0,0.,12.0,0.,12.0
1979-07-19 16:14:24.540 ,2,1,0.,12.0,0.,12.0,0.,12.0,0.,12.0
1979-07-19 16:14:36.540 ,2,1,0.,12.0,0.,12.0,0.,12.0,0.,12.0
1979-07-19 16:14:48.540 ,2,0,0.,12.0,0.,12.0,0.,12.0,0.,12.0
1979-07-19 16:15:00.540 ,2,0,0.,12.0,0.,12.0,0.,12.0,0.,12.0
1979-07-19 16:15:12.540 ,3,1,0.,12.0,0.,12.0,0.,12.0,0.,12.0
1979-07-19 16:15:24.540 ,3,1,0.,12.0,0.,12.0,0.,12.0,0.,12.0
1979-07-19 16:15:36.540 ,3,0,0.,12.0,0.,12.0,0.,12.0,0.,12.0
1979-07-19 16:15:48.540 ,3,0,0.,12.0,0.,12.0,0.,12.0,0.,12.0
1979-07-19 16:16:00.540 ,4,1,0.,12.0,0.,12.0,0.,12.0,0.,12.0
1979-07-19 16:16:12.540 ,4,1,0.,12.0,0.,12.0,0.,12.0,0.,12.0
1979-07-19 16:16:24.540 ,4,0,0.,12.0,0.,12.0,0.,12.0,0.,12.0
1979-07-19 16:16:36.540 ,4,0,0.,12.0,0.,12.0,0.,12.0,0.,12.0
1979-07-19 16:16:48.540 ,5,1,0.,12.0,0.,12.0,0.,12.0,0.,12.0
1979-07-19 16:17:00.540 ,5,1,0.,12.0,0.,12.0,0.,12.0,0.,12.0
1979-07-19 16:17:12.540 ,5,0,0.,12.0,0.,12.0,0.,12.0,0.,12.0
1979-07-19 16:17:24.540 ,5,0,0.,12.0,0.,12.0,0.,12.0,0.,12.0
1979-07-19 16:17:36.540 ,6,1,0.,12.0,0.,12.0,0.,12.0,0.,12.0
1979-07-19 16:17:48.540 ,6,1,0.,12.0,0.,12.0,0.,12.0,0.,12.0
1979-07-19 16:18:00.540 ,6,0,0.,12.0,0.,12.0,0.,12.0,0.,12.0
1979-07-19 16:18:12.540 ,6,0,0.,12.0,0.,12.0,0.,12.0,0.,12.0